Clines Corner, NM

6:41 AM MDT on August 18, 2017 (GMT -0600)
Clines Corner

Weather History for KCQC - February, 2013

Change the Weather History Date:

Friday, February 22, 2013

  Actual Average (KSAF) Record (KSAF)
Temperature  
Mean Temperature 28 °F -  
Max Temperature 39 °F 0 °F 61 °F (2009)
Min Temperature 18 °F - 14 °F (2015)
Degree Days  
Heating Degree Days 36    
Moisture  
Dew Point 16 °F    
Average Humidity 67    
Maximum Humidity 86    
Minimum Humidity 33    
Precipitation  
Precipitation 0.00 in - - ()
Sea Level Pressure  
Sea Level Pressure 29.90 in    
Wind  
Wind Speed 12 mph (West)    
Max Wind Speed 25 mph    
Max Gust Speed 34 mph    
Visibility 10 miles    
Events Snow    
Averages and records for this station are not official NWS values.
T = Trace of Precipitation, MM = Missing Value Source: NWS Daily Summary

Daily Weather History Graph

Daily Weather History Graph

Search for Another Location

Airport or City:

Trip Planner

Search our weather history database for the weather conditions in past years. The results will help you decide how hot, cold, wet, or windy it might be!

Date:

Astronomy

Feb. 22, 2013 Rise Set
Actual Time 6:40 AM MST 5:52 PM MST
Civil Twilight 6:14 AM MST 6:17 PM MST
Nautical Twilight 5:45 AM MST 6:47 PM MST
Astronomical Twilight 5:15 AM MST 7:16 PM MST
Moon 3:10 PM MST (2/22) 4:22 AM MST (2/22)
Length of Visible Light 12h 03m
Length of Day
11h 11m
Waxing Gibbous, 90% of the Moon is Illuminated
Feb 22
Waxing Gibbous
Feb 25
Full
Mar 4
Last Quarter
Mar 11
New
Mar 19
First Quarter

Hourly Weather History & Observations

Time (MST) Temp. Windchill Dew Point Humidity Pressure Visibility Wind Dir Wind Speed Gust Speed Precip Events Conditions
12:53 AM 24.1 °F 14.4 °F 18.0 °F 77% 29.87 in 10.0 mi WNW 9.2 mph - N/A   Scattered Clouds
1:53 AM 21.0 °F 11.4 °F 16.0 °F 81% 29.86 in 10.0 mi West 8.1 mph - N/A   Mostly Cloudy
2:53 AM 21.9 °F 9.8 °F 17.1 °F 82% 29.86 in 10.0 mi West 12.7 mph - N/A   Mostly Cloudy
3:53 AM 19.9 °F 8.6 °F 16.0 °F 85% 29.86 in 10.0 mi West 10.4 mph - N/A   Partly Cloudy
4:53 AM 18.0 °F 6.1 °F 14.0 °F 84% 29.89 in 10.0 mi West 10.4 mph - N/A   Partly Cloudy
5:53 AM 19.9 °F 8.6 °F 16.0 °F 85% 29.90 in 10.0 mi West 10.4 mph - N/A   Clear
6:53 AM 19.0 °F 11.1 °F 15.1 °F 85% 29.92 in 10.0 mi West 5.8 mph - N/A   Scattered Clouds
7:08 AM 21.2 °F 13.6 °F 15.8 °F 80% 29.86 in 10.0 mi West 5.8 mph - N/A   Mostly Cloudy
7:22 AM 21.2 °F 13.6 °F 17.6 °F 86% 29.86 in 10.0 mi WNW 5.8 mph - N/A   Scattered Clouds
7:53 AM 25.0 °F 19.3 °F 19.0 °F 78% 29.92 in 10.0 mi West 4.6 mph - N/A   Clear
8:53 AM 28.9 °F 18.2 °F 19.9 °F 69% 29.92 in 10.0 mi West 13.8 mph - N/A   Partly Cloudy
9:08 AM 28.4 °F 18.0 °F 19.4 °F 69% 29.89 in 10.0 mi WNW 12.7 mph - N/A   Mostly Cloudy
9:53 AM 30.9 °F 21.7 °F 19.9 °F 64% 29.93 in 10.0 mi WSW 11.5 mph 19.6 mph N/A   Overcast
10:33 AM 30.2 °F 19.3 °F 19.4 °F 64% 29.89 in 10.0 mi West 15.0 mph - N/A   Overcast
10:53 AM 30.9 °F 21.7 °F 18.0 °F 59% 29.95 in 9.0 mi West 11.5 mph - 0.00 in Snow Light Snow
11:53 AM 34.0 °F 23.8 °F 17.1 °F 50% 29.92 in 10.0 mi WNW 16.1 mph 20.7 mph N/A   Mostly Cloudy
12:53 PM 37.9 °F 30.5 °F 18.0 °F 45% 29.86 in 10.0 mi WSW 11.5 mph - N/A   Overcast
1:53 PM 39.9 °F 30.0 °F 12.9 °F 33% 29.85 in 10.0 mi West 21.9 mph 25.3 mph N/A   Scattered Clouds
2:53 PM 37.9 °F 26.6 °F 12.0 °F 35% 29.85 in 10.0 mi West 25.3 mph 34.5 mph N/A   Partly Cloudy
3:53 PM 35.1 °F 23.5 °F 12.0 °F 39% 29.88 in 10.0 mi West 21.9 mph - N/A   Mostly Cloudy
4:53 PM 35.1 °F 23.8 °F 12.0 °F 39% 29.88 in 10.0 mi West 20.7 mph 32.2 mph N/A   Overcast
5:53 PM 28.9 °F 16.1 °F 21.0 °F 72% 29.92 in 10.0 mi WNW 19.6 mph - N/A   Overcast
6:53 PM 27.0 °F 16.1 °F 19.0 °F 72% 29.96 in 10.0 mi NW 12.7 mph - N/A   Overcast
7:53 PM 27.0 °F 14.3 °F 18.0 °F 69% 29.95 in 10.0 mi NW 17.3 mph - N/A   Partly Cloudy
8:53 PM 26.1 °F 12.3 °F 19.0 °F 75% 29.95 in 10.0 mi WNW 19.6 mph - N/A   Overcast
9:53 PM 24.1 °F 10.1 °F 17.1 °F 75% 29.96 in 10.0 mi WNW 18.4 mph - N/A   Mostly Cloudy
10:53 PM 23.0 °F 7.2 °F 12.0 °F 63% 29.95 in 10.0 mi West 23.0 mph 29.9 mph N/A   Partly Cloudy
11:53 PM 21.0 °F 5.0 °F 9.0 °F 60% 29.93 in 10.0 mi WNW 21.9 mph 32.2 mph N/A   Clear